Regional Weather Roundup
Issued by NWS Spokane, WA

Home | Current Version | Previous Version | Text Only | Print | Product List | Glossary On
Versions: 1 2 3 4 5 6 7 8 9 10 11 12 13 14 15 16 17 18 19 20 21 22 23 24 25 26 27 28 29 30 31 32 33 34 35 36 37 38 39 40 41 42 43 44 45 46 47 48 49 50
825
NZUS01 KOTX 221310
RWROTX
EASTERN WASHINGTON/NORTHERN IDAHO ROUNDUP
NATIONAL WEATHER SERVICE, SPOKANE WA
600 AM PDT FRI MAY 22 2015

Note: "fair" indicated few or no clouds below 12,000 feet with no
significant weather and/or obstructions to visibility.

...NORTHEAST WASHINGTON AND NORTHERN IDAHO PANHANDLE...

CITY           SKY/WX    TMP DP  RH WIND       PRES   REMARKS
SPOKANE INTL   MOCLDY    60  48  64 SE7       29.86R
SPOKANE DOWNTO PTCLDY    58  51  78 CALM      29.86R
COEUR D ALENE  PTCLDY    54  46  76 CALM      29.86S
DEER PARK      PTCLDY    50  47  89 CALM      29.87R
SANDPOINT      PTCLDY    50  45  81 CALM      29.88S
BONNERS FERRY  FAIR      46  37  71 CALM      29.90R

...SOUTHEAST WASHINGTON AND SOUTHERN IDAHO PANHANDLE...

CITY           SKY/WX    TMP DP  RH WIND       PRES   REMARKS
WALLA WALLA    MOCLDY    64  53  67 S6        29.83S
PULLMAN/MOSCOW CLEAR     52  49  89 CALM      29.89R
LEWISTON       CLEAR     58  52  80 CALM      29.85R
LOWELL           N/A     50  47  89 CALM      29.93R

...COLUMBIA BASIN...

CITY           SKY/WX    TMP DP  RH WIND       PRES   REMARKS
EPHRATA        LGT RAIN  62  56  80 S3        29.80R
MOSES LAKE     MOCLDY    62  55  77 S8        29.81S
TRI CITIES     CLOUDY    65  56  72 SW3       29.81R
HERMISTON      CLOUDY    62  54  74 S5        29.82R
PENDLETON      MOCLDY    58  52  80 SE5       29.84S

...EAST SLOPES CASCADES...

CITY           SKY/WX    TMP DP  RH WIND       PRES   REMARKS
THE DALLES     CLOUDY    63  50  62 MISG      29.85R
YAKIMA         CLOUDY    61  53  75 W3        29.83S
ELLENSBURG     CLOUDY    62  53  72 N12       29.85R
WENATCHEE      CLOUDY    62  49  62 W7        29.84R
OMAK           PTCLDY    60  45  57 N9        29.83R

...SOUTHERN BRITISH COLUMBIA...

CITY           SKY/WX    TMP DP  RH WIND       PRES   REMARKS
PENTICTON      MOCLDY    54  45  71 VRB2      29.86R
CASTLEGAR      PTCLDY    48  39  71 SE3       29.89
CRANBROOK      PTCLDY    48  32  53 W5        29.95R

...WESTERN MONTANA...

CITY           SKY/WX    TMP DP  RH WIND       PRES   REMARKS
MISSOULA       CLEAR     47  41  80 CALM      29.96R

...NEIGHBORING CITIES...

CITY           SKY/WX    TMP DP  RH WIND       PRES   REMARKS
SEATTLE        CLOUDY    53  50  89 SW8       29.96R
CALGARY        MOSUNNY   41  32  70 VRB3      29.99R



USA.gov is the U.S. government's official web portal to all federal, state and local government web resources and services.